Regional Weather Roundup
Issued by NWS

Home | Current Version | Previous Version | Text Only | Print | Product List | Glossary On
Versions: 1 2 3 4 5 6 7 8 9 10 11 12 13 14 15 16 17 18 19 20 21 22 23 24 25 26 27 28 29 30 31 32 33 34 35 36 37 38 39 40 41 42 43 44 45 46 47 48 49 50
000
ASUS44 KEWX 281403
RWRTX
SOUTH TEXAS REGIONAL WEATHER ROUNDUP
NATIONAL WEATHER SERVICE AUSTIN/SAN ANTONIO TX
900 AM CDT SAT MAR 28 2015

NOTE: "FAIR" INDICATED FEW OR NO CLOUDS BELOW 12,000 FEET WITH NO
SIGNIFICANT WEATHER AND/OR OBSTRUCTIONS TO VISIBILITY.

* - THESE STATIONS ARE NOT NWS OR FAA STATIONS...AND ARE NOT SUBJECT
    TO NWS AND FAA QUALITY CONTROL.

TXZ171-172-183>190-281500-
TEXAS HILL COUNTRY AND EDWARDS PLATEAU

CITY           SKY/WX    TMP DP  RH WIND       PRES   REMARKS
JUNCTION       SUNNY     57  38  48 NW5       30.13R
*LLANO         SUNNY     48  45  87 CALM      30.15S
BURNET         SUNNY     56  43  61 SW3       30.14S
*HORSESHOE BAY SUNNY     60  43  52 CALM      30.12F
*KERRVILLE     SUNNY     51  45  80 CALM      30.15S
*FREDERICKSBRG SUNNY     54  42  63 CALM      30.14R
*ROCKSPRINGS   SUNNY     59  34  38 S12       30.17S
*BOERNE STAGE  SUNNY     63  34  34 SW9       30.17R
*CASTROVILLE   SUNNY     49  43  79 CALM      30.18R
HONDO          SUNNY     54  45  71 CALM      30.18R
*UVALDE        SUNNY     57  45  64 SE3       30.16S
DEL RIO        SUNNY     58  39  49 E9        30.11R
LAUGHLIN AFB   SUNNY     57  44  61 SE8       30.12R
CARRIZO SPRGS  SUNNY     50  45  81 E3        30.14R
$$

TXZ173-191>194-202-209-217>225-228-281500-
CENTRAL AND SOUTH CENTRAL TEXAS

CITY           SKY/WX    TMP DP  RH WIND       PRES   REMARKS
GEORGETOWN     SUNNY     54  45  71 S6        30.12S
AUSTIN/BERGSTM MOSUNNY   52  48  86 CALM      30.13S
AUSTIN/MABRY   SUNNY     56  47  71 CALM      30.14S
*AUSTIN/EXEC     N/A     55  46  71 S6        30.13S
*LAGO VISTA    SUNNY     61  39  44 SW7       30.13S
SAN MARCOS     SUNNY     54  45  71 S3        30.15R
NEW BRAUNFELS  SUNNY     58  46  64 SW6       30.15R
RANDOLPH AFB   SUNNY     62  40  44 SW10      30.16R
PT SAN ANTONIO SUNNY     60  42  52 SW7       30.14R
SAN ANTONIO    SUNNY     63  38  39 SW10      30.16R
STINSON FIELD  SUNNY     58  44  60 SW9       30.14S
*PLEASANTON    SUNNY     58  44  60 SW7       30.17S
*LA GRANGE     SUNNY     56  51  82 CALM      30.14R
*GIDDINGS      SUNNY     57  47  71 CALM      30.18S
*GONZALES      SUNNY     55  48  77 CALM      30.15R
$$

TXZ163>164-176>182-195>201-210>213-226-227-235-281500-
SOUTHEAST TEXAS

CITY           SKY/WX    TMP DP  RH WIND       PRES   REMARKS
COLLEGE STN    SUNNY     58  42  55 S8        30.15R
*BRYAN         SUNNY     57  44  60 SE12      30.16S
*CALDWELL      SUNNY     54  48  82 SE7       30.17S
*CROCKETT      SUNNY     54  45  71 S7        30.19R
*BRENHAM       SUNNY     57  48  72 SE6       30.16S
HUNTSVILLE     SUNNY     58  40  51 VRB6      30.16S
CONROE         SUNNY     55  46  71 VRB3      30.18R
HOUSTON BUSH   MOSUNNY   60  48  64 SE7       30.17S
HOUSTON HOBBY  MOSUNNY   62  52  69 SE6       30.17S
*HOUSTON SW AP SUNNY     64  59  83 SE5       30.19S
PEARLAND       SUNNY     62  53  72 SE6       30.19R
HOUSTON HOOKS  SUNNY     59  46  62 S3        30.17R
ELLINGTON FLD  SUNNY     63  52  67 SE5       30.19R
SUGAR LAND     SUNNY     61  52  72 S6        30.17S
*HOUSTON EXEC  SUNNY     59  50  72 SE8       30.19R
*CLEVELAND MUN SUNNY     55  50  85 CALM      30.19S
*WHARTON       SUNNY     57  55  93 CALM      30.19R
*COLUMBUS      FAIR      58  51  77 CALM      30.16S
$$

TXZ214>216-236>238-281500-
THE UPPER TEXAS COAST

CITY           SKY/WX    TMP DP  RH WIND       PRES   REMARKS
*ORANGE        SUNNY     59  49  69 SE7       30.21R
PORT ARTHUR    SUNNY     62  54  74 E8        30.19R
GALVESTON      SUNNY     65  58  78 SE9       30.19R
ANGLETON       SUNNY     58  56  93 CALM      30.19R
*BAY CITY      SUNNY     58  58 100 CALM      30.19R
PALACIOS         N/A     62  57  83 SW5       30.18R
$$

TXZ229>234-239>247-281500-
TEXAS COASTAL BEND AND RIO GRANDE PLAINS

CITY           SKY/WX    TMP DP  RH WIND       PRES   REMARKS
VICTORIA       SUNNY     60  47  61 SW14      30.17S
*BEEVILLE      SUNNY     58  51  76 SW7       30.18R
ROCKPORT         N/A     62  52  69 SW6       30.19R
*PORT ARANSAS  SUNNY     63  53  71 SW3       30.19R
*PORT LAVACA   SUNNY     58  53  83 SW10      30.18R
*INGLESIDE     SUNNY     62  55  76 SW10      30.18R
CORPUS CHRISTI SUNNY     55  51  86 SW9       30.19R
CORPUS NAS     SUNNY     59  55  87 SW9       30.18R
*ROBSTOWN      SUNNY     56  53  89 MISG      30.19R
ALICE          SUNNY     60  51  72 SW12      30.17S
KINGSVILLE NAS SUNNY     58  56  93 SW7       30.19R
COTULLA        SUNNY     57  44  62 S5        30.17R
*FAITH RANCH   SUNNY     54  41  62 S7        30.15R
LAREDO         SUNNY     59  44  57 SE10      30.18R
$$

TXZ248>255-281500-
DEEP SOUTH TEXAS

CITY           SKY/WX    TMP DP  RH WIND       PRES   REMARKS
BROWNSVILLE    SUNNY     61  58  90 S5        30.20R
PORT ISABEL    SUNNY     62  57  83 S5        30.19R
*SOUTH PADRE   SUNNY     64  61  88 S8        30.20R
HARLINGEN      SUNNY     60  56  86 S6        30.19R
*HEBBRONVILLE  NOT AVBL
MCALLEN        SUNNY     60  53  77 SE7       30.20R
*WESLACO       SUNNY     58  50  75 S7        30.19R
FALFURRIAS     SUNNY     56  52  85 S6        30.19R
EDINBURG       SUNNY     59  53  80 SE3       30.20R
*ZAPATA        SUNNY     58  45  61 SE7       30.17
$$

TXZ213>215-236>238-242>244-246-247-251-254-255-281500-
CMAN STATIONS

STATION/POSITION TIME  TEMP    WIND        PRES    WAVE
                       AIR SEA DIR/SP/G            HT/PER
                 (UTC) (F)     (DEG/KT/KT) (MB)    (FT/S)
$$

GMZ080-GMZ150>470-281500-
OFFSHORE BUOY REPORTS

STATION/POSITION TIME  TEMP    WIND        PRES    WAVE
                       AIR SEA DIR/SP/G            HT/PER
                 (UTC) (F)     (DEG/KT/KT) (MB)    (FT/S)
$$



USA.gov is the U.S. government's official web portal to all federal, state and local government web resources and services.